Location: Borojevi?i
(45.0486°N, 16.2297°E)
Time: 16:04:15
(UTC+00:00)

Cosmos 1602 - Pass Details

Date: 08 August 2020
Orbit: 513 x 535 km, 82.5° (Epoch: 24 September)

Event Time Altitude Azimuth Distance (km) Brightness Sun altitude
Exits shadow 20:30:27 59° 105° (ESE) 622 3.7 -20.2°
Maximum altitude 20:30:34 59° 95° (E) 620 3.8 -20.3°
Drops below altitude 10° 20:34:28 10° 16° (NNE) 1,797 6.9 -20.7°
Sets 20:36:39 0° 13° (NNE) 2,695 7.9 -20.9°
